Tracking 27380 objects as of 6-Jun-2023
HD Live streaming from Space Station
objects crossing your sky now

BREEZE-M DEB

Track BREEZE-M DEB now!


NORAD ID: 41318
Int'l Code: 2012-026E
Perigee: 10,361.9 km
Apogee: 34,737.1 km
Inclination: 10.1 °
Period: 815.8 minutes
Semi major axis: 28920 km
RCS: Unknown
Launch date: May 17, 2012
Source: Commonwealth of Independent States (former USSR) (CIS)
Launch site: TYURATAM MISSILE AND SPACE COMPLEX (TTMTR)

Note: This is SATELLITE DEBRIS
Your satellite tracking list
Your tracking list is empty




NASA's NSSDC Master Catalog

Two Line Element Set (TLE):
1 41318U 12026E   23154.07634398 -.00000039  00000-0  00000-0 0  9996
2 41318  10.1328 235.7550 4214159 226.3785  90.1286  1.76520085 47595
Source of the keplerian elements: AFSPC